Date String (YYYY-MM-DD hh:mm:ss) UTC,Instrument flags,absolute air pressure of the measurement (hPa),sample flow rate (lpm),inlet stack bypass flow (lpm),air temperature of the measurement (°C),ambient temperature measured by the external sensor (°C),aerosol sample conditioner tube jacket temperature (°C),OPC LED temperature (°C),internal box temperature (°C),relative humidity of the measurement (%),span deviation,mass concentration of particles derived from Lorenz-Mie calculation of OPC scattering (μg/m³),mass concentration of particles derived from Lorenz-Mie calculation of OPC scattering (μg/m³),mass concentration of particles derived from Lorenz-Mie calculation of OPC scattering (μg/m³)
DateTimeUTC,F1_M11,P_M11,Q1_M11,Q2_M11,T1_M11,T2_M11,T3_M11,T4_M11,T5_M11,U1_M11,ZSPAN_M11,X2_M11,X0_M11,X1_M11
2023-07-11 06:00:00,SystemResetWarning,0830.7,5.01,000.00,029.2,027.8,000.0,037.7,030.9,20.6,0000.0,0003.86,0008.34,0003.39
2023-07-11 06:01:00,SystemResetWarning,0830.7,5.00,000.00,029.3,028.0,000.0,037.7,030.9,19.7,0000.0,0003.87,0008.36,0003.38
2023-07-11 06:02:00,SystemResetWarning,0830.7,5.00,000.00,029.3,028.1,000.0,037.7,031.0,19.2,0000.0,0003.88,0008.37,0003.38
2023-07-11 06:03:00,SystemResetWarning,0830.7,5.00,000.00,029.3,028.2,000.0,037.7,031.0,19.4,0000.0,0003.85,0008.39,0003.36
2023-07-11 06:04:00,SystemResetWarning,0830.7,5.01,000.00,029.4,028.3,000.0,037.8,031.1,19.3,0000.0,0003.85,0008.37,0003.35
2023-07-11 06:05:00,SystemResetWarning,0830.6,4.98,000.00,029.4,027.2,000.0,037.7,031.0,18.6,0000.0,0003.84,0008.32,0003.34
2023-07-11 06:06:00,SystemResetWarning,0830.6,5.01,000.00,029.3,025.6,000.0,037.6,030.8,18.7,0000.0,0003.87,0008.33,0003.33
2023-07-11 06:07:00,SystemResetWarning,0830.6,5.01,000.00,029.3,025.4,000.0,037.5,030.6,19.2,0000.0,0003.87,0008.53,0003.33
2023-07-11 06:08:00,SystemResetWarning,0830.6,5.01,000.00,029.2,025.7,000.0,037.6,030.4,19.2,0000.0,0003.86,0008.54,0003.33
2023-07-11 06:09:00,SystemResetWarning,0830.6,5.00,000.00,029.1,026.1,000.0,037.6,030.5,20.3,0000.0,0003.86,0008.51,0003.32
2023-07-11 06:10:00,SystemResetWarning,0830.6,5.00,000.00,029.1,026.5,000.0,037.6,030.6,20.4,0000.0,0003.84,0007.99,0003.33
2023-07-11 06:11:00,SystemResetWarning,0830.6,5.00,000.00,029.1,026.8,000.0,037.6,030.7,20.4,0000.0,0003.83,0007.68,0003.32
2023-07-11 06:12:00,SystemResetWarning,0830.7,5.00,000.00,029.2,027.1,000.0,037.6,030.7,20.3,0000.0,0003.78,0007.53,0003.30
2023-07-11 06:13:00,SystemResetWarning,0830.7,4.99,000.00,029.2,027.4,000.0,037.7,030.8,20.2,0000.0,0003.73,0007.37,0003.27
2023-07-11 06:14:00,SystemResetWarning,0830.7,5.00,000.00,029.2,027.6,000.0,037.7,030.8,19.9,0000.0,0003.75,0007.33,0003.28
2023-07-11 06:15:00,SystemResetWarning,0830.7,5.02,000.00,029.2,027.8,000.0,037.7,030.9,19.5,0000.0,0003.74,0007.29,0003.27
2023-07-11 06:16:00,SystemResetWarning,0830.7,5.00,000.00,029.3,027.9,000.0,037.7,030.9,19.4,0000.0,0003.73,0007.52,0003.26
2023-07-11 06:17:00,SystemResetWarning,0830.7,5.00,000.00,029.3,028.0,000.0,037.7,031.0,19.4,0000.0,0003.74,0008.44,0003.26
2023-07-11 06:18:00,SystemResetWarning,0830.7,4.99,000.00,029.4,028.1,000.0,037.7,031.0,19.4,0000.0,0003.68,0008.37,0003.24
2023-07-11 06:19:00,SystemResetWarning,0830.7,5.00,000.00,029.4,028.2,000.0,037.8,031.0,19.2,0000.0,0003.67,0008.30,0003.23
2023-07-11 06:20:00,SystemResetWarning,0830.7,5.02,000.00,029.4,028.0,000.0,037.8,031.1,19.4,0000.0,0003.66,0008.29,0003.23
2023-07-11 06:21:00,SystemResetWarning,0830.6,4.99,000.00,029.4,026.2,000.0,037.7,030.9,18.3,0000.0,0003.67,0008.37,0003.22
2023-07-11 06:22:00,SystemResetWarning,0830.6,4.99,000.00,029.3,025.4,000.0,037.6,030.7,18.1,0000.0,0003.67,0008.16,0003.21
2023-07-11 06:23:00,SystemResetWarning,0830.5,5.02,000.00,029.2,025.6,000.0,037.6,030.5,18.2,0000.0,0003.66,0008.12,0003.21
2023-07-11 06:24:00,SystemResetWarning,0830.6,4.99,000.00,029.2,025.9,000.0,037.6,030.5,18.0,0000.0,0003.69,0008.25,0003.21
2023-07-11 06:25:00,SystemResetWarning,0830.5,4.99,000.00,029.1,026.3,000.0,037.6,030.5,18.1,0000.0,0003.68,0008.30,0003.19
2023-07-11 06:26:00,SystemResetWarning,0830.5,5.00,000.00,029.1,026.7,000.0,037.6,030.6,18.3,0000.0,0003.67,0008.30,0003.18
2023-07-11 06:27:00,SystemResetWarning,0830.6,5.00,000.00,029.2,027.0,000.0,037.7,030.7,18.0,0000.0,0003.68,0008.65,0003.17
2023-07-11 06:28:00,SystemResetWarning,0830.6,5.00,000.00,029.2,027.3,000.0,037.7,030.8,18.6,0000.0,0003.66,0007.81,0003.14
2023-07-11 06:29:00,SystemResetWarning,0830.6,5.00,000.00,029.2,027.5,000.0,037.7,030.8,20.3,0000.0,0003.61,0007.57,0003.12
2023-07-11 06:30:00,SystemResetWarning,0830.6,4.99,000.00,029.2,027.7,000.0,037.7,030.9,21.4,0000.0,0003.55,0007.37,0003.10
2023-07-11 06:31:00,SystemResetWarning,0830.6,5.00,000.00,029.3,027.9,000.0,037.7,030.9,20.4,0000.0,0003.55,0007.41,0003.09
2023-07-11 06:32:00,SystemResetWarning,0830.6,5.01,000.00,029.3,028.0,000.0,037.7,031.0,20.1,0000.0,0003.52,0007.32,0003.06
2023-07-11 06:33:00,SystemResetWarning,0830.6,4.99,000.00,029.4,028.1,000.0,037.8,031.0,19.1,0000.0,0003.50,0007.32,0003.04
2023-07-11 06:34:00,SystemResetWarning,0830.8,5.00,000.00,029.4,028.2,000.0,037.8,031.1,19.0,0000.0,0003.51,0007.80,0003.02
2023-07-11 06:35:00,SystemResetWarning,0830.6,5.00,000.00,029.4,028.3,000.0,037.8,031.1,18.4,0000.0,0003.52,0008.49,0003.03
2023-07-11 06:36:00,SystemResetWarning,0830.4,5.00,000.00,029.5,027.2,000.0,037.7,031.0,18.3,0000.0,0003.50,0009.11,0003.04
2023-07-11 06:37:00,SystemResetWarning,0830.4,5.00,000.00,029.4,025.6,000.0,037.6,030.7,18.2,0000.0,0003.50,0009.36,0003.05
2023-07-11 06:38:00,SystemResetWarning,0830.6,5.01,000.00,029.3,025.5,000.0,037.6,030.5,18.1,0000.0,0003.49,0008.97,0003.06
2023-07-11 06:39:00,SystemResetWarning,0830.4,5.01,000.00,029.2,025.7,000.0,037.6,030.4,18.2,0000.0,0003.45,0008.69,0003.06
2023-07-11 06:40:00,SystemResetWarning,0830.5,4.99,000.00,029.1,026.1,000.0,037.6,030.5,18.3,0000.0,0003.45,0008.64,0003.07
2023-07-11 06:41:00,SystemResetWarning,0830.4,4.99,000.00,029.1,026.5,000.0,037.7,030.6,18.3,0000.0,0003.46,0008.64,0003.08
2023-07-11 06:42:00,SystemResetWarning,0830.6,5.01,000.00,029.2,026.9,000.0,037.7,030.7,18.2,0000.0,0003.47,0008.81,0003.07
2023-07-11 06:43:00,SystemResetWarning,0830.4,5.01,000.00,029.2,027.2,000.0,037.7,030.7,18.4,0000.0,0003.45,0009.19,0003.06
2023-07-11 06:44:00,SystemResetWarning,0830.5,5.00,000.00,029.2,027.4,000.0,037.7,030.8,18.4,0000.0,0003.44,0009.23,0003.05
2023-07-11 06:45:00,SystemResetWarning,0830.4,4.99,000.00,029.2,027.6,000.0,037.7,030.8,18.6,0000.0,0003.45,0008.80,0003.05
2023-07-11 06:46:00,SystemResetWarning,0830.5,5.00,000.00,029.3,027.8,000.0,037.7,030.9,18.8,0000.0,0003.43,0008.25,0003.04
2023-07-11 06:47:00,SystemResetWarning,0830.4,5.00,000.00,029.3,027.9,000.0,037.7,030.9,19.1,0000.0,0003.44,0007.37,0003.02
2023-07-11 06:48:00,SystemResetWarning,0830.4,5.01,000.00,029.3,028.1,000.0,037.7,031.0,19.1,0000.0,0003.43,0007.87,0003.00
2023-07-11 06:49:00,SystemResetWarning,0830.4,5.00,000.00,029.4,028.2,000.0,037.8,031.0,19.2,0000.0,0003.41,0008.05,0002.96
2023-07-11 06:50:00,SystemResetWarning,0830.4,4.98,000.00,029.4,028.2,000.0,037.8,031.1,18.1,0000.0,0003.43,0008.88,0002.94
2023-07-11 06:51:00,SystemResetWarning,0830.4,5.01,000.00,029.4,028.3,000.0,037.8,031.1,17.8,0000.0,0003.42,0008.84,0002.93
2023-07-11 06:52:00,SystemResetWarning,0830.6,4.99,000.00,029.4,027.1,000.0,037.7,031.0,17.8,0000.0,0003.42,0008.97,0002.92
2023-07-11 06:53:00,SystemResetWarning,0830.4,5.00,000.00,029.4,025.6,000.0,037.6,030.7,18.0,0000.0,0003.38,0009.65,0002.90
2023-07-11 06:54:00,SystemResetWarning,0830.4,5.01,000.00,029.3,025.4,000.0,037.6,030.6,17.9,0000.0,0003.37,0009.14,0002.90
2023-07-11 06:55:00,SystemResetWarning,0830.4,5.01,000.00,029.2,025.7,000.0,037.6,030.4,18.1,0000.0,0003.36,0009.17,0002.89
2023-07-11 06:56:00,SystemResetWarning,0830.4,4.99,000.00,029.1,026.1,000.0,037.6,030.5,17.9,0000.0,0003.38,0009.42,0002.89
2023-07-11 06:57:00,SystemResetWarning,0830.4,5.00,000.00,029.1,026.5,000.0,037.7,030.6,17.9,0000.0,0003.38,0009.50,0002.88
2023-07-11 06:58:00,SystemResetWarning,0830.4,5.00,000.00,029.1,026.8,000.0,037.7,030.7,17.9,0000.0,0003.35,0009.35,0002.86
2023-07-11 06:59:00,SystemResetWarning,0830.4,5.00,000.00,029.2,027.1,000.0,037.7,030.7,17.9,0000.0,0003.33,0008.74,0002.84
